Search your local weather  

 
Advertise Here

Hazardous Weather Conditions

Air Quality Alert issued July 26 at 1:43PM CDT
Air Quality Alert issued July 26 at 6:21PM CDT

Current Conditions: CHICAGO, ILLINOIS

Fair


78.0 F

Last Updated on Jul 27 2021, 12:52 am CDT
Humidity: 64%
Wind Speed: SW 3.5 mph
Barometer 30.05 in
Dewpoint: 64.9 F
Visibility: 10.00 mi
Precip: --
Heat Index: NA
Wind Chill: NA
Current conditions at:

Chicago / Wheeling, Pal-Waukee Airport, IL (KPWK)

Lat: 42.12083 Lon: -87.90472

Local Radar Image active severe weather and emergency alerts image image weather storm and storm spotter reports image weather observation monitoring service image
Local
Radar
Active
Alerts
Storm Reports Weather
Monitoring

5 Day Forecast for CHICAGO, ILLINOIS (60601)

Tuesday

Partly Sunny

High 92 °F
Tuesday
Night
Partly Cloudy

Low 73 °F
Wednesday

Mostly Cloudy

High 91 °F
Wednesday
Night
Chance of T-storms

Low 74 °F
Thursday

Chance of T-storms

High 80 °F
Thursday
Night
Mostly Clear

Low 68 °F
Friday

Partly Sunny

High 76 °F
Friday
Night
Partly Cloudy

Low 67 °F
Saturday

Isolated T-storm

High 85 °F

Sign-up For Email & Text Message Weather Alert Notification Services


Advertise Here

Observation History for CHICAGO, ILLINOIS


Time Wind
(mph)
Vis
(mi)
Weather Precip (in) Temperature (F) Relative
Humidity
Wind
Chill
(F)
Heat
Index
(F)
Pressure
Air Dwpt altimeter
(in)
sea level
(mb)
12:52 am CDT SW 3.5 10.00 Fair -- 78.0 64.9 64% NA NA 30.05 1017.0
11:52 pm CDT N 0.0 10.00 Fair -- 80.0 64.0 58% NA 82 30.05 1017.0
10:52 pm CDT S 4.6 10.00 Fair -- 81.0 64.0 57% NA 83 30.02 1015.9
9:52 pm CDT N 0.0 10.00 Fair -- 82.0 62.1 51% NA 83 30.02 1015.8
8:52 pm CDT SE 4.6 10.00 Fair -- 84.0 61.0 46% NA 84 30.00 1015.3
7:52 pm CDT W 6.9 10.00 Fair -- 87.0 60.1 40% NA 87 30.01 1015.6
6:52 pm CDT W 4.6 10.00 Fair -- 90.0 59.0 35% NA 89 30.00 1015.4
5:52 pm CDT S 4.6 10.00 Fair -- 91.0 53.1 27% NA 89 30.00 1015.4
4:52 pm CDT NE 5.8 10.00 Fair -- 93.0 54.0 27% NA 91 30.01 1015.5
3:52 pm CDT SW 5.8 10.00 Fair -- 93.0 52.0 25% NA 90 30.02 1016.0
2:52 pm CDT NW 5.8 10.00 Fair -- 93.0 55.0 28% NA 91 30.02 1016.2
1:52 pm CDT S 4.6 10.00 Fair -- 92.0 52.0 26% NA 89 30.04 1016.7
12:52 pm CDT 5.8 10.00 Fair -- 91.0 52.0 26% NA 88 30.04 1016.6
11:52 am CDT 4.6 10.00 Fair -- 89.0 53.1 29% NA 87 30.05 1017.1
10:52 am CDT N 0.0 10.00 Fair -- 88.0 57.9 36% NA 87 30.04 1016.8
9:52 am CDT N 0.0 10.00 Fair -- 84.0 61.0 46% NA 84 30.05 1017.0
8:52 am CDT N 3.5 10.00 Fair -- 81.0 63.0 54% NA 82 30.05 1016.9
7:52 am CDT N 4.6 10.00 Fair -- 76.0 62.1 62% NA NA 30.04 1016.7
6:52 am CDT NW 3.5 10.00 Fair -- 71.0 63.0 76% NA NA 30.04 1016.6
5:52 am CDT N 0.0 10.00 Fair -- 67.0 61.0 81% NA NA 30.02 1016.0
4:52 am CDT N 0.0 10.00 Fair -- 69.0 61.0 76% NA NA 30.01 1015.6
3:52 am CDT NW 3.5 10.00 Fair -- 69.0 60.1 73% NA NA 30.00 1015.3
2:52 am CDT N 0.0 10.00 Fair -- 70.0 61.0 73% NA NA 29.99 1015.0
1:52 am CDT N 0.0 10.00 Fair -- 71.0 60.1 68% NA NA 30.00 1015.2

Regional Weather Observation

Chicago, Chicago-OHare International Airport, IL (KORD)

A Few Clouds
77.0 F

Chicago/Waukegan Regional Airport, IL (KUGN)

Fair
75.0 F

Chicago, Chicago Midway Airport, IL (KMDW)

A Few Clouds
77.0 F

Schaumburg Regional Airport, IL (K06C)

Fair
72.0 F

Kenosha, Kenosha Regional Airport, WI (KENW)

Fair
70.0 F

Chicago / West Chicago, Dupage Airport, IL (KDPA)

Fair
72.0 F
Advertise Here

Advertise Here